Weather History for Tallahassee, FL

Change the Weather History Date:

Monday, September 16, 2013

  Actual Average Record
Temperature  
Mean Temperature 83 °F 78 °F  
Max Temperature 94 °F 89 °F 102 °F (1927)
Min Temperature 72 °F 68 °F 56 °F (1961)
Degree Days  
Heating Degree Days 0    
Month to date heating degree days 0  
Since 1 July heating degree days 0  
Cooling Degree Days 18    
Month to date cooling degree days 281  
Year to date cooling degree days 2317  
Growing Degree Days 32 (Base 50)    
Moisture  
Dew Point 70 °F    
Average Humidity 67    
Maximum Humidity 93    
Minimum Humidity 41    
Precipitation  
Precipitation 0.00 in 0.15 in 8.60 in (1924)
Month to date precipitation 2.22 2.71  
Year to date precipitation 55.51 46.62  
Sea Level Pressure  
Sea Level Pressure 30.05 in    
Wind  
Wind Speed 3 mph (SE)    
Max Wind Speed 13 mph    
Max Gust Speed 15 mph    
Visibility 10 miles    
Events Thunderstorm    
T = Trace of Precipitation, MM = Missing Value Source: NWS Daily Summary

Daily Weather History Graph

Daily Weather History Graph

Search for Another Location

Airport:

Trip Planner

Search our weather history database for the weather conditions in past years. The results will help you decide how hot, cold, wet, or windy it might be!

Date:

Astronomy

Sep. 16, 2013 Rise Set
Actual Time 7:22 AM EDT 7:41 PM EDT
Civil Twilight 6:58 AM EDT 8:05 PM EDT
Nautical Twilight 6:30 AM EDT 8:33 PM EDT
Astronomical Twilight 6:01 AM EDT 9:01 PM EDT
Moon 5:41 PM EDT (9/16) 4:18 AM EDT (9/16)
Length of Visible Light 13h 06m
Length of Day
12h 18m
Waxing Gibbous, 90% of the Moon is Illuminated
Sep 16
Waxing Gibbous
Sep 19
Full
Sep 26
Last Quarter
Oct 4
New
Oct 11
First Quarter

Hourly Weather History & Observations

Time (EDT) Temp. Heat Index Dew Point Humidity Pressure Visibility Wind Dir Wind Speed Gust Speed Precip Events Conditions
12:53 AM 75.9 °F - 71.1 °F 85% 30.09 in 10.0 mi Calm Calm - N/A   Scattered Clouds
1:53 AM 73.9 °F - 71.1 °F 91% 30.09 in 10.0 mi SSE 3.5 mph - N/A   Mostly Cloudy
2:03 AM 73.4 °F - 71.6 °F 94% 30.09 in 10.0 mi Calm Calm - N/A   Mostly Cloudy
2:53 AM 73.9 °F - 71.1 °F 91% 30.08 in 10.0 mi Calm Calm - N/A   Clear
3:53 AM 73.9 °F - 71.1 °F 91% 30.07 in 10.0 mi Calm Calm - N/A   Clear
4:53 AM 73.9 °F - 71.1 °F 91% 30.07 in 10.0 mi Calm Calm - N/A   Clear
5:53 AM 73.9 °F - 71.1 °F 91% 30.06 in 10.0 mi Calm Calm - N/A   Clear
6:53 AM 73.0 °F - 70.0 °F 90% 30.06 in 10.0 mi Calm Calm - N/A   Clear
7:53 AM 72.0 °F - 69.1 °F 91% 30.08 in 10.0 mi Calm Calm - N/A   Clear
8:53 AM 75.9 °F - 71.1 °F 85% 30.09 in 10.0 mi ESE 8.1 mph - N/A   Clear
9:53 AM 80.1 °F 84.2 °F 73.0 °F 79% 30.11 in 10.0 mi ESE 4.6 mph - N/A   Clear
10:53 AM 84.0 °F 89.0 °F 71.1 °F 65% 30.10 in 10.0 mi Calm Calm - N/A   Partly Cloudy
11:53 AM 88.0 °F 93.8 °F 71.1 °F 57% 30.09 in 10.0 mi Variable 3.5 mph - N/A   Partly Cloudy
12:53 PM 90.0 °F 93.6 °F 68.0 °F 48% 30.08 in 10.0 mi NNE 4.6 mph - N/A   Partly Cloudy
1:53 PM 93.0 °F 97.4 °F 68.0 °F 44% 30.05 in 10.0 mi ENE 8.1 mph - N/A   Mostly Cloudy
2:53 PM 93.0 °F 96.4 °F 66.9 °F 42% 30.03 in 10.0 mi ENE 5.8 mph - N/A   Mostly Cloudy
3:53 PM 91.0 °F 95.6 °F 69.1 °F 48% 30.00 in 10.0 mi South 6.9 mph - N/A   Mostly Cloudy
4:53 PM 91.9 °F 95.9 °F 68.0 °F 45% 29.99 in 10.0 mi ESE 4.6 mph - N/A   Scattered Clouds
5:53 PM 91.0 °F 95.6 °F 69.1 °F 48% 29.99 in 10.0 mi SE 11.5 mph - N/A   Mostly Cloudy
6:13 PM 87.8 °F 91.4 °F 68.0 °F 52% 29.99 in 10.0 mi SSE 6.9 mph - N/A Thunderstorm Thunderstorm
6:53 PM 82.9 °F 87.5 °F 71.1 °F 67% 30.00 in 10.0 mi West 4.6 mph - N/A Thunderstorm Thunderstorm
7:28 PM 80.6 °F 84.6 °F 71.6 °F 74% 30.01 in 10.0 mi West 6.9 mph - N/A   Scattered Clouds
7:53 PM 79.0 °F - 71.1 °F 77% 30.01 in 10.0 mi West 3.5 mph - N/A   Scattered Clouds
8:53 PM 78.1 °F - 71.1 °F 79% 30.04 in 10.0 mi Calm Calm - N/A   Scattered Clouds
9:53 PM 79.0 °F - 70.0 °F 74% 30.04 in 10.0 mi Calm Calm - N/A   Scattered Clouds
10:53 PM 78.1 °F - 71.1 °F 79% 30.06 in 10.0 mi SSE 5.8 mph - N/A   Scattered Clouds
11:53 PM 79.0 °F - 71.1 °F 77% 30.05 in 10.0 mi NW 3.5 mph - N/A   Clear